Indiana, PA

10:15 PM EDT on August 30, 2016 (GMT -0400)
Indiana County-Stewart

Weather History for KIDI - July, 2013

Change the Weather History Date:

Monday, July 15, 2013

  Actual Average Record
Temperature  
Mean Temperature 76 °F -  
Max Temperature 87 °F 83 °F 91 °F (1983)
Min Temperature 66 °F 59 °F 44 °F (1960)
Cooling Degree Days 12    
Growing Degree Days 26 (Base 50)    
Moisture  
Dew Point 71 °F    
Average Humidity 80    
Maximum Humidity 100    
Minimum Humidity 55    
Precipitation  
Precipitation 0.01 in - - ()
Sea Level Pressure  
Sea Level Pressure 30.35 in    
Wind  
Wind Speed 1 mph (WNW)    
Max Wind Speed 8 mph    
Max Gust Speed -    
Visibility 10 miles    
Events      
Averages and records for this station are not official NWS values.
T = Trace of Precipitation, MM = Missing Value Source: NWS Daily Summary

Daily Weather History Graph

Daily Weather History Graph

Search for Another Location

Airport or City:

Trip Planner

Search our weather history database for the weather conditions in past years. The results will help you decide how hot, cold, wet, or windy it might be!

Date:

Astronomy

Jul. 15, 2013 Rise Set
Actual Time 5:58 AM EDT 8:45 PM EDT
Civil Twilight 5:26 AM EDT 9:18 PM EDT
Nautical Twilight 4:45 AM EDT 9:58 PM EDT
Astronomical Twilight 3:59 AM EDT 10:44 PM EDT
Moon 1:18 PM EDT (7/15) No Moon Set
Length of Visible Light 15h 51m
Length of Day
14h 47m
Waxing Crescent, 45% of the Moon is Illuminated
Jul 15
Waxing Crescent
Jul 15
First Quarter
Jul 22
Full
Jul 29
Last Quarter
Aug 6
New

Hourly Weather History & Observations

Time (EDT) Temp. Heat Index Dew Point Humidity Pressure Visibility Wind Dir Wind Speed Gust Speed Precip Events Conditions
12:15 AM 71.6 °F - 69.8 °F 94% 30.34 in 10.0 mi Calm Calm - N/A   Unknown
12:35 AM 71.6 °F - 69.8 °F 94% 30.33 in 10.0 mi Calm Calm - N/A   Unknown
12:55 AM 69.8 °F - 69.8 °F 100% 30.33 in 10.0 mi Calm Calm - N/A   Unknown
1:15 AM 69.8 °F - 69.8 °F 100% 30.34 in 10.0 mi Calm Calm - N/A   Unknown
1:35 AM 69.8 °F - 69.8 °F 100% 30.34 in 10.0 mi Calm Calm - N/A   Unknown
1:55 AM 68.0 °F - 68.0 °F 100% 30.34 in 10.0 mi Calm Calm - N/A   Unknown
2:15 AM 69.8 °F - 69.8 °F 100% 30.34 in 10.0 mi Calm Calm - N/A   Unknown
2:35 AM 68.0 °F - 68.0 °F 100% 30.34 in 10.0 mi Calm Calm - N/A   Unknown
2:55 AM 68.0 °F - 68.0 °F 100% 30.34 in 10.0 mi Calm Calm - N/A   Unknown
3:15 AM 69.8 °F - 69.8 °F 100% 30.34 in 10.0 mi Calm Calm - N/A   Unknown
3:35 AM 68.0 °F - 68.0 °F 100% 30.34 in 10.0 mi Calm Calm - N/A   Unknown
3:55 AM 66.2 °F - 66.2 °F 100% 30.34 in 10.0 mi Calm Calm - N/A   Unknown
4:15 AM 66.2 °F - 66.2 °F 100% 30.34 in 10.0 mi Calm Calm - N/A   Unknown
4:35 AM 66.2 °F - 66.2 °F 100% 30.35 in 10.0 mi Calm Calm - N/A   Unknown
4:55 AM 66.2 °F - 66.2 °F 100% 30.35 in 10.0 mi Calm Calm - N/A   Unknown
5:15 AM 66.2 °F - 66.2 °F 100% 30.35 in 10.0 mi Calm Calm - N/A   Unknown
5:35 AM 66.2 °F - 66.2 °F 100% 30.35 in 10.0 mi Calm Calm - N/A   Unknown
5:55 AM 66.2 °F - 66.2 °F 100% 30.36 in 10.0 mi Calm Calm - N/A   Unknown
6:15 AM 66.2 °F - 66.2 °F 100% 30.37 in 10.0 mi Calm Calm - N/A   Unknown
6:35 AM 68.0 °F - 68.0 °F 100% 30.37 in 10.0 mi Calm Calm - N/A   Unknown
6:55 AM 69.8 °F - 69.8 °F 100% 30.38 in 10.0 mi Calm Calm - N/A   Unknown
7:15 AM 71.6 °F - 69.8 °F 94% 30.38 in 10.0 mi Calm Calm - N/A   Unknown
7:35 AM 71.6 °F - 69.8 °F 94% 30.38 in 10.0 mi Calm Calm - N/A   Unknown
7:55 AM 73.4 °F - 71.6 °F 94% 30.38 in 10.0 mi Calm Calm - N/A   Unknown
8:15 AM 73.4 °F - 71.6 °F 94% 30.39 in 10.0 mi SW 3.5 mph - N/A   Unknown
8:35 AM 75.2 °F - 71.6 °F 89% 30.39 in 10.0 mi SW 4.6 mph - N/A   Unknown
8:55 AM 75.2 °F - 71.6 °F 89% 30.39 in 10.0 mi WSW 3.5 mph - N/A   Unknown
9:15 AM 77.0 °F - 71.6 °F 83% 30.39 in 10.0 mi Calm Calm - N/A   Unknown
9:35 AM 78.8 °F - 73.4 °F 83% 30.39 in 10.0 mi West 3.5 mph - N/A   Unknown
9:55 AM 80.6 °F 84.6 °F 71.6 °F 74% 30.39 in 10.0 mi West 4.6 mph - N/A   Unknown
10:15 AM 80.6 °F 84.6 °F 71.6 °F 74% 30.39 in 10.0 mi NW 8.1 mph - N/A   Unknown
10:35 AM 80.6 °F 84.6 °F 71.6 °F 74% 30.39 in 10.0 mi NW 5.8 mph - N/A   Unknown
10:55 AM 82.4 °F 87.2 °F 71.6 °F 70% 30.39 in 10.0 mi WNW 3.5 mph - N/A   Unknown
11:15 AM 82.4 °F 87.2 °F 71.6 °F 70% 30.38 in 10.0 mi West 3.5 mph - N/A   Unknown
11:35 AM 84.2 °F 89.6 °F 71.6 °F 66% 30.38 in 10.0 mi NW 3.5 mph - N/A   Unknown
11:55 AM 84.2 °F 89.6 °F 71.6 °F 66% 30.38 in 10.0 mi NW 4.6 mph - N/A   Unknown
12:15 PM 84.2 °F 89.6 °F 71.6 °F 66% 30.37 in 10.0 mi WNW 4.6 mph - N/A   Unknown
12:35 PM 84.2 °F 89.6 °F 71.6 °F 66% 30.37 in 10.0 mi Calm Calm - N/A   Unknown
12:55 PM 84.2 °F 89.6 °F 71.6 °F 66% 30.37 in 10.0 mi Calm Calm - N/A   Unknown
1:15 PM 84.2 °F 90.9 °F 73.4 °F 70% 30.36 in 10.0 mi Calm Calm - N/A   Unknown
1:35 PM 84.2 °F 90.9 °F 73.4 °F 70% 30.36 in 10.0 mi SSW 5.8 mph - N/A   Unknown
1:55 PM 86.0 °F 91.8 °F 71.6 °F 62% 30.35 in 10.0 mi Calm Calm - N/A   Unknown
2:15 PM 86.0 °F 91.8 °F 71.6 °F 62% 30.34 in 10.0 mi West 4.6 mph - N/A   Unknown
2:35 PM 87.8 °F 93.8 °F 71.6 °F 58% 30.34 in 10.0 mi Calm Calm - N/A   Unknown
2:55 PM 86.0 °F 91.8 °F 71.6 °F 62% 30.34 in 10.0 mi West 4.6 mph - N/A   Unknown
3:15 PM 87.8 °F 93.8 °F 71.6 °F 58% 30.33 in 10.0 mi WNW 5.8 mph - N/A   Unknown
3:35 PM 87.8 °F 93.8 °F 71.6 °F 58% 30.33 in 10.0 mi WSW 4.6 mph - N/A   Unknown
3:55 PM 87.8 °F 93.8 °F 71.6 °F 58% 30.33 in 10.0 mi WNW 5.8 mph - N/A   Unknown
4:15 PM 87.8 °F 92.6 °F 69.8 °F 55% 30.32 in 10.0 mi NNW 5.8 mph - N/A   Unknown
4:35 PM 87.8 °F 92.6 °F 69.8 °F 55% 30.32 in 10.0 mi NW 6.9 mph - N/A   Unknown
4:55 PM 87.8 °F 93.8 °F 71.6 °F 58% 30.31 in 10.0 mi West 6.9 mph - N/A   Unknown
5:15 PM 87.8 °F 93.8 °F 71.6 °F 58% 30.31 in 10.0 mi NW 6.9 mph - N/A   Unknown
5:35 PM 87.8 °F 93.8 °F 71.6 °F 58% 30.31 in 10.0 mi West 6.9 mph - N/A   Unknown
5:55 PM 87.8 °F 93.8 °F 71.6 °F 58% 30.30 in 10.0 mi WNW 3.5 mph - N/A   Unknown
6:15 PM 87.8 °F 93.8 °F 71.6 °F 58% 30.30 in 10.0 mi NW 5.8 mph - N/A   Unknown
6:35 PM 87.8 °F 93.8 °F 71.6 °F 58% 30.30 in 10.0 mi WNW 5.8 mph - N/A   Unknown
6:55 PM 87.8 °F 93.8 °F 71.6 °F 58% 30.30 in 10.0 mi WNW 4.6 mph - N/A   Unknown
7:15 PM 86.0 °F 91.8 °F 71.6 °F 62% 30.30 in 10.0 mi WNW 3.5 mph - N/A   Unknown
7:35 PM 84.2 °F 89.6 °F 71.6 °F 66% 30.30 in 10.0 mi WNW 4.6 mph - N/A   Unknown
7:55 PM 84.2 °F 89.6 °F 71.6 °F 66% 30.29 in 10.0 mi West 3.5 mph - N/A   Unknown
8:15 PM 82.4 °F 87.2 °F 71.6 °F 70% 30.29 in 10.0 mi West 3.5 mph - N/A   Unknown
8:35 PM 82.4 °F 87.2 °F 71.6 °F 70% 30.30 in 10.0 mi Calm Calm - N/A   Unknown
8:55 PM 80.6 °F 85.4 °F 73.4 °F 79% 30.30 in 10.0 mi Calm Calm - N/A   Unknown
11:15 PM 77.0 °F - 73.4 °F 89% 30.34 in 10.0 mi Calm Calm - N/A   Unknown
11:35 PM 75.2 °F - 75.2 °F 100% 30.34 in 7.0 mi Calm Calm - N/A   Unknown
11:55 PM 75.2 °F - 75.2 °F 100% 30.34 in 5.0 mi Calm Calm - 0.01 in   Unknown